Tracking 19570 objects as of 21-Feb-2019
HD Live streaming from Space Station
objects crossing your sky now

COSMOS 1413 (GLONASS)

Track COSMOS 1413 (GLONASS) now!
COSMOS 1413 (GLONASS) is classified as:


NORAD ID: 13603
Int'l Code: 1982-100A
Perigee: 19,058.5 km
Apogee: 19,093.9 km
Inclination: 64.0 °
Period: 673.3 minutes
Semi major axis: 25447 km
RCS: 0.4302 m2 (medium)
Launch date: October 12, 1982
Source: Commonwealth of Independent States (former USSR) (CIS)
Launch site: TYURATAM MISSILE AND SPACE COMPLEX (TTMTR)
aabbcc
Your satellite tracking list
Your tracking list is empty




NASA's NSSDC Master Catalog

Two Line Element Set (TLE):
1 13603U 82100A   19051.81167035  .00000014  00000-0  00000+0 0  9995
2 13603  63.9842 159.9706 0006965  11.8921 314.7904  2.13866836284018
Source of the keplerian elements: AFSPC